Location: Carri�res
(48.9069°N, 2.1792°E)
Time: 09:34:48
(UTC+00:00)

Envisat - Visible Passes

Search period start: 17 April 2021 00:00
Search period end: 27 April 2021 00:00
Orbit: 764 x 766 km, 98.1° (Epoch: 16 April)

Date Brightness Start Highest point End Pass type
(mag) Time Alt. Az. Time Alt. Az. Time Alt. Az.
17 Apr 6.5 03:50:58 10° ENE 03:51:25 10° E 03:51:54 10° E visible
19 Apr 5.8 04:13:50 10° NE 04:17:12 18° E 04:20:33 10° SE visible
22 Apr 6.0 04:02:57 10° NE 04:05:36 14° E 04:08:14 10° ESE visible
25 Apr 6.3 03:52:34 10° ENE 03:53:58 11° E 03:55:24 10° E visible
